Theta_e
312 312 311 311 311 313 313 311 310 310 310 307 305 306 306 306 306 306 309 310 311 311 309 306 308 313 313 310 313 315 314 315 317 321 323 324 328 330 331 331 330 329 328 327 326
313 313 313 313 312 310 311 313 312 310 312 313 311 307 305 305 306 308 311 313 310 311 312 308 310 316 313 312 312 313 313 315 316 318 320 321 324 329 330 330 328 328 329 329 328
311 311 312 312 311 310 309 310 311 313 311 313 314 314 310 305 309 320 316 312 312 312 312 308 311 314 314 313 313 314 314 315 318 319 319 319 322 328 329 328 328 328 327 328 327
306 307 307 307 306 306 308 310 310 311 313 311 313 314 313 310 321 321 316 313 311 311 311 309 314 315 315 311 314 313 315 316 317 319 319 319 322 322 324 326 326 324 324 325 325
302 303 303 303 304 305 306 308 309 311 312 313 311 313 313 315 314 316 316 313 310 308 309 314 316 316 313 313 315 313 315 317 318 319 320 321 320 320 322 322 321 320 320 321 325
303 304 306 307 307 308 308 309 309 312 310 314 310 312 313 317 317 316 315 313 314 309 310 314 315 316 317 315 313 316 316 317 318 319 319 319 319 320 320 320 320 319 319 319 320
308 309 309 310 310 310 311 311 311 312 311 314 309 311 314 313 317 319 317 315 318 316 315 316 316 316 317 316 319 319 317 317 317 318 318 319 317 317 319 319 319 318 319 319 319
311 312 312 311 311 311 312 312 312 312 312 313 309 313 316 313 317 316 317 317 316 317 316 316 316 317 318 318 318 317 317 316 316 317 318 318 316 318 320 319 319 318 318 320 320
313 313 313 312 311 311 311 311 312 312 313 310 311 316 320 319 318 316 317 317 316 317 317 315 317 317 317 315 315 316 315 316 316 317 317 316 316 318 319 320 318 318 318 319 319
314 313 313 312 311 311 312 312 312 313 316 311 318 318 320 319 318 316 313 315 317 317 315 316 316 314 313 314 315 314 316 315 317 318 318 316 316 317 320 320 319 319 319 319 319
313 313 312 311 311 312 313 313 320 320 319 320 317 318 320 319 317 315 314 316 318 317 315 316 314 314 314 316 317 318 317 317 318 319 318 316 317 317 318 319 318 319 319 319 319
311 312 312 311 312 314 313 313 318 318 317 319 320 321 321 320 319 318 316 317 318 317 315 316 316 317 318 318 319 319 318 317 318 319 318 318 319 319 318 318 320 320 320 320 320
310 311 310 312 316 319 319 317 316 317 317 319 320 321 320 319 318 319 316 317 318 317 318 317 319 320 320 318 319 317 318 317 318 318 318 318 318 318 319 320 321 321 321 321 321
309 309 309 313 317 317 318 316 317 318 318 323 320 321 322 319 318 318 317 317 317 318 318 318 319 320 320 319 318 316 317 319 319 318 317 318 317 318 319 319 319 320 320 320 320
309 308 309 312 315 314 316 316 316 319 331 322 320 319 319 319 319 318 319 318 318 317 317 318 318 319 319 319 319 318 319 319 319 317 318 319 318 318 318 320 321 319 320 321 321
308 308 309 313 316 316 316 316 317 323 333 324 320 318 319 319 319 319 319 318 317 317 316 317 318 319 319 319 319 320 319 318 318 317 318 319 319 320 321 321 321 319 320 319 320
307 308 310 314 317 317 318 318 323 330 326 324 321 320 318 318 319 319 318 317 316 316 317 319 319 320 321 318 320 320 319 317 318 320 322 325 327 324 322 321 321 318 319 319 319
307 309 318 312 314 319 319 321 328 328 324 322 321 321 321 321 321 321 320 318 318 319 318 320 321 321 321 323 323 322 322 326 331 325 324 323 325 324 321 320 320 320 320 319 319
307 312 318 318 316 318 320 326 327 326 321 320 320 320 321 323 324 322 322 322 321 320 321 323 324 322 322 322 322 321 320 320 321 321 322 321 321 320 321 320 320 320 320 319 318
308 316 319 322 317 318 321 325 325 323 320 319 321 322 323 323 325 324 323 322 321 320 318 321 322 322 322 321 322 320 319 320 320 323 323 321 320 318 317 317 316 315 315 316 316
310 319 321 319 319 320 322 325 324 320 318 318 320 320 320 321 321 321 323 322 320 320 320 318 320 321 319 321 322 319 319 319 320 321 320 320 318 318 318 317 317 315 316 317 317
313 320 319 319 321 322 325 325 322 320 318 319 319 319 320 320 321 320 321 321 321 320 319 320 319 321 321 319 320 320 320 320 324 324 322 319 319 317 316 316 315 315 315 314 313
311 316 319 317 318 320 322 323 323 319 319 318 318 318 318 319 320 320 320 320 320 319 320 319 319 321 320 320 320 320 320 320 319 318 317 314 314 315 314 315 315 314 313 312 312
311 319 320 317 318 319 319 319 319 319 318 318 317 318 318 319 319 320 320 320 319 318 317 316 317 319 320 322 320 321 320 319 317 316 317 315 314 313 315 314 313 312 312 311 311
313 318 315 315 317 317 317 317 317 319 317 316 318 318 317 318 317 319 319 317 319 318 316 313 315 316 316 317 317 318 318 317 317 315 315 313 313 315 314 312 312 311 311 310 310
313 314 314 313 314 317 316 318 318 317 315 316 316 315 314 316 317 316 315 316 317 318 317 316 314 316 318 318 318 317 317 316 316 315 313 314 315 313 313 312 311 310 309 309 308
312 312 312 313 314 315 317 316 315 315 314 314 313 313 314 314 313 313 313 314 314 315 318 317 317 318 318 318 318 317 318 319 319 317 316 316 314 312 311 310 309 309 309 307 307
Wind_Speed
17 18 20 21 22 21 21 21 19 18 17 16 15 13 13 14 15 18 21 13 9 6 8 7 9 8 10 16 20 24 8 12 17 15 19 27 6 17 22 22 17 10 8 17 11
19 19 20 20 21 22 22 21 20 18 16 14 14 15 15 16 18 20 9 7 11 8 10 9 12 15 22 14 13 8 7 17 14 16 17 22 16 20 5 23 15 16 13 9 8
21 22 22 23 23 22 21 21 20 19 16 15 14 15 15 16 15 2 1 1 4 9 12 13 16 14 18 19 23 18 10 16 20 34 33 29 16 29 21 9 39 30 16 18 9
22 23 23 23 23 22 21 21 20 19 18 15 14 14 15 14 1 4 4 5 4 9 13 12 9 10 5 9 28 8 22 25 30 33 32 10 1 6 8 25 23 20 15 16 15
22 23 24 24 23 22 22 21 21 20 19 17 14 13 13 8 16 8 5 2 5 9 14 10 12 17 9 13 21 10 16 29 36 34 30 14 5 5 11 13 11 12 13 14 24
22 23 24 25 25 25 24 23 22 22 19 17 14 11 9 7 4 8 8 8 4 7 12 11 13 17 22 13 9 21 24 24 28 28 22 4 6 10 9 11 18 18 19 13 14
22 24 25 26 25 26 25 24 22 22 19 15 12 11 11 22 3 2 3 6 8 4 10 14 17 21 16 9 15 19 11 12 14 13 7 10 8 9 20 19 21 21 20 19 21
23 23 25 27 27 29 28 26 24 20 17 12 10 8 12 7 9 14 15 6 8 13 12 13 14 10 12 20 17 10 4 3 6 9 16 12 9 10 23 25 26 22 21 13 11
26 26 27 28 30 33 32 26 22 18 10 7 7 6 12 6 15 14 16 17 14 10 10 10 7 9 14 6 7 6 5 7 11 15 10 9 6 12 27 9 23 22 25 20 19
27 28 29 31 35 34 26 17 15 6 3 5 7 6 10 9 9 9 13 16 13 11 11 9 5 4 5 2 6 7 6 9 15 18 18 9 9 12 12 17 24 27 26 26 25
28 29 31 33 34 28 18 9 2 1 9 12 11 8 8 8 8 8 10 10 10 9 6 15 4 7 13 14 16 15 15 10 8 13 10 9 5 7 8 5 13 25 30 28 29
28 28 31 33 27 17 10 6 5 9 10 19 23 23 20 11 7 8 11 9 9 6 8 7 8 14 16 16 13 11 4 8 9 9 2 5 5 4 5 9 15 14 16 21 27
28 27 30 29 11 6 11 7 8 9 7 16 25 24 18 16 11 13 18 14 6 9 10 9 12 14 19 8 8 7 4 7 9 9 7 5 6 5 9 14 26 26 23 21 16
27 27 27 23 7 7 11 10 14 9 3 6 6 11 19 17 8 12 20 14 6 9 9 7 12 14 11 5 6 6 11 10 12 4 3 5 5 7 8 10 12 26 12 22 22
27 26 24 17 10 7 8 7 9 3 2 9 8 11 12 13 7 15 18 18 9 9 6 9 9 11 11 9 9 8 4 5 6 7 7 8 4 7 9 10 9 9 22 22 19
29 22 23 10 12 6 12 11 10 2 5 5 9 7 8 13 14 20 13 11 13 10 11 12 18 10 6 14 5 5 4 7 5 2 4 11 5 10 6 4 7 10 18 15 11
28 21 16 11 6 4 9 9 3 4 6 2 4 14 13 11 12 13 12 10 6 4 6 9 9 6 16 9 8 10 3 2 4 1 10 12 5 8 5 3 12 8 14 12 8
28 16 6 8 4 4 11 3 4 8 8 2 3 4 6 11 3 9 8 7 12 6 3 3 8 5 7 3 4 9 1 4 3 3 6 9 6 4 9 15 19 16 11 7 2
26 10 9 4 1 3 8 4 3 8 8 7 8 7 6 8 6 4 4 3 3 5 5 1 5 7 9 8 7 4 9 7 3 5 2 4 6 11 10 7 8 7 3 2 7
27 18 10 5 5 5 1 5 7 15 7 6 4 6 8 4 2 1 3 4 0 4 8 4 3 7 7 7 5 7 5 4 3 2 3 4 1 1 7 6 6 5 7 8 13
17 8 5 8 6 4 3 4 6 3 4 2 6 7 9 6 8 4 4 7 5 4 4 7 5 5 8 3 4 5 3 1 3 4 4 2 5 3 5 1 3 6 6 15 19
5 3 10 4 4 5 4 3 20 3 7 4 4 3 5 8 3 7 6 8 3 9 2 3 4 3 7 11 9 10 1 2 4 4 4 3 7 8 8 5 11 17 24 22 23
14 8 9 8 3 2 2 8 13 6 6 5 3 2 5 5 5 4 6 8 3 2 4 2 1 2 7 3 4 3 5 10 9 5 6 4 5 9 12 9 18 19 23 25 26
5 4 4 10 11 3 5 6 8 7 8 8 7 9 7 5 5 4 6 9 13 1 6 4 1 3 5 1 5 4 13 14 9 2 5 6 7 10 9 8 13 21 24 24 25
2 3 7 3 6 5 5 6 10 4 11 7 3 8 6 4 7 1 4 8 7 6 0 5 4 5 8 10 10 10 13 17 15 11 7 7 7 8 7 8 14 18 21 24 26
4 7 11 10 16 4 5 3 6 6 5 5 4 6 4 4 5 6 6 4 3 6 3 5 4 4 7 11 12 15 14 16 16 16 10 3 7 5 13 19 21 22 26 25 26
7 10 8 9 7 8 2 4 2 1 4 8 4 4 6 6 11 15 15 12 9 4 3 2 0 2 4 8 10 6 12 12 2 15 6 6 4 14 16 17 21 26 24 25 34
Wind_Direction
355 359 1 1 1 360 357 354 348 345 346 341 335 327 316 306 298 289 281 284 250 221 250 257 240 234 251 240 236 240 235 244 252 243 252 268 260 231 279 293 288 267 67 107 88
337 339 341 344 348 348 350 350 347 339 335 338 336 331 322 313 304 291 302 237 234 247 263 250 223 222 209 235 233 210 238 247 258 258 267 279 268 228 184 279 277 306 266 305 324
327 327 328 330 333 335 335 338 341 335 326 322 325 329 328 318 318 323 42 322 211 229 249 223 247 274 222 229 236 245 241 254 237 256 262 271 295 219 187 203 265 278 297 287 353
323 323 324 326 327 327 328 327 328 329 321 310 311 317 322 316 338 232 312 335 281 237 227 212 243 245 243 221 234 233 247 249 256 250 256 281 313 115 144 204 244 259 280 283 273
324 323 324 323 322 321 320 320 320 320 318 309 294 310 318 305 266 257 301 308 257 218 207 192 248 253 224 221 231 212 240 245 250 255 272 269 274 248 227 228 245 268 278 264 246
326 325 323 320 321 318 316 314 313 313 313 301 284 292 295 261 188 236 294 213 186 181 183 212 241 255 267 239 220 233 233 239 246 246 256 235 241 253 229 239 252 268 270 267 254
332 330 327 324 322 319 315 310 309 306 307 292 275 275 262 254 181 251 264 201 182 207 230 257 270 276 307 314 284 299 257 243 241 263 250 261 287 250 250 243 222 239 250 255 258
333 330 329 325 319 318 314 308 304 301 297 279 259 256 257 285 225 239 218 249 216 221 250 273 303 304 307 297 307 294 318 305 270 239 251 186 257 258 253 228 210 222 240 238 247
330 329 326 324 320 315 309 306 298 300 287 245 231 244 263 291 236 221 221 215 230 216 240 257 313 290 284 295 311 286 243 257 260 246 217 167 227 246 259 275 185 211 235 242 251
326 325 326 324 321 319 311 305 300 287 264 200 185 269 258 234 219 218 205 224 236 208 217 226 247 223 287 252 241 259 235 255 253 252 214 197 212 242 211 167 178 195 211 223 225
325 324 326 326 326 319 313 301 342 134 200 209 210 224 287 130 146 187 200 223 232 238 215 229 187 226 231 234 236 247 259 268 315 344 154 190 192 227 269 227 198 206 212 216 224
328 326 326 330 329 321 315 259 248 328 297 270 243 252 274 259 177 185 187 207 225 243 225 255 227 238 250 254 251 251 323 320 316 315 325 256 243 280 302 286 273 245 223 219 225
331 329 330 333 330 347 338 344 349 338 285 292 232 223 227 239 238 209 183 204 224 229 252 225 248 232 239 273 321 323 299 295 283 303 322 354 331 307 269 254 257 255 252 239 231
331 330 330 334 322 323 310 3 343 352 304 240 150 218 225 215 233 244 180 182 227 251 258 259 266 272 267 216 247 264 271 251 265 351 289 32 289 291 283 275 247 235 91 93 85
329 329 323 324 320 315 350 346 322 291 284 172 149 158 170 173 147 218 183 196 235 230 231 264 279 288 265 260 215 243 267 18 357 350 14 307 345 284 277 287 77 81 80 75 73
324 327 312 304 274 349 348 332 303 237 247 195 144 175 151 217 245 162 174 198 230 250 260 269 289 299 303 319 326 347 24 350 347 14 306 263 216 287 255 216 114 106 99 85 72
323 321 295 277 237 26 336 314 259 243 158 307 170 154 187 197 233 169 190 194 203 212 257 281 275 325 318 300 334 337 24 312 330 239 240 93 6 238 268 159 122 108 104 96 74
324 319 277 274 283 10 330 309 240 302 356 153 23 322 263 204 205 248 179 210 205 238 254 279 302 299 347 357 309 296 29 139 182 265 302 317 210 242 110 83 91 89 83 77 112
327 317 264 166 337 33 293 256 254 309 19 8 326 267 276 49 32 254 166 316 152 193 187 29 259 343 320 354 328 356 245 179 199 248 276 249 276 47 75 81 85 98 127 272 299
328 326 282 200 218 210 240 258 288 301 49 7 308 351 359 21 308 211 335 306 325 344 124 149 315 315 335 26 291 250 281 7 340 328 249 259 358 88 38 19 79 25 340 302 339
327 328 181 166 246 220 227 274 327 66 103 355 4 333 337 354 350 311 172 321 341 321 135 158 129 280 342 239 282 297 343 298 92 150 187 298 267 166 33 47 34 275 312 42 42
354 265 193 189 193 219 224 183 296 329 3 41 32 303 316 355 359 319 322 288 245 304 221 99 151 245 251 276 266 258 268 214 122 281 295 170 281 299 301 295 318 42 41 33 24
331 270 222 193 238 280 268 217 254 316 85 28 12 268 347 348 330 325 354 75 155 358 22 116 221 319 311 274 18 318 227 290 186 172 210 162 266 291 285 23 49 43 28 15 6
319 296 188 218 259 345 32 306 342 56 58 42 5 350 29 328 298 309 352 12 336 111 120 52 331 186 220 205 163 259 291 284 285 140 229 220 259 275 40 36 30 23 14 3 352
279 300 7 332 347 349 335 304 293 13 26 23 105 43 20 296 340 25 14 341 346 318 340 149 227 261 274 284 277 260 237 267 269 255 220 238 239 54 41 24 28 12 360 348 339
326 347 332 306 301 291 274 301 24 37 35 329 345 42 360 293 331 323 356 334 293 342 285 339 240 273 284 289 277 272 267 264 267 266 257 318 95 41 25 15 12 1 347 341 335
352 335 341 305 310 301 260 71 24 224 46 88 73 14 305 333 330 307 303 275 251 284 305 311 138 77 264 282 315 278 251 276 222 50 49 55 344 7 6 8 357 337 339 332 325